THORAD AGENA D DEB, 42498

Orbit data source: Space-Track

THORAD AGENA D DEB, 42498 is space debris in SSO originally from a launch on Wed, 08 Apr 1970 UTC launched from the Air Force Western Test Range (AFWTR). Debris objects in space refer to the collection of defunct objects orbiting the Earth. Examples of debris include non-operational satellites, rocket bodies, and fragments generated from explosions, collisions, or faulty payload assembly.

Loading next visibility...
Identifier
42498, 1970-025RC
Orbit
SSO
Country
Flag of USUS
Related business
Manufacturer
Unknown
Mission
Spacecraft
Bus & Motor
Unknown
Mass
Unknown
Launch date (UTC)
1970-04-08 (56 years ago)
Launch vehicle
Unknown
Launch site
Air Force Western Test Range (AFWTR)
Object type
Payload
Rocket body
Debris
Shape & HBR
Unknown shape, 0.1 m
Radar Cross Section
Medium (>0.1 m² and <1 m²)

Expand to show TLE details & history
Last TLE update: 2 weeks ago

TLE from 2 weeks ago
0 THORAD AGENA D DEB
1 42498U 70025RC  26161.31387405  .00000958  00000-0  18719-2 0  9998
2 42498 100.5145 204.6960 0170858 307.6685  50.9045 13.33852122589977
Epoch: 2026-06-10T07:31Z
TLE epoch observation values (Epoch: 2026-06-10T07:31:58.717Z)
Latitude
Longitude
-166.97246°
Altitude
1,055.411 km
Speed
7.363 km/s
True Right ascension
13h 38m 47s
True Declination
0° 00' 00"
Sunlit
Object was in full shadow at epoch
Visualization orbit readout
Latitude
Unknown
Longitude
Unknown
Altitude
Unknown
Speed
Unknown
Apparent Right ascension
Unknown
Apparent Declination
Unknown
Sunlit
N/A
Visualization observer readout
Local Sidereal Time
21:36:46
Azimuth
Unknown
Elevation
Unknown
Doppler factor
Unknown
Orbital elements
Apogee altitude
1,257.91 km
Perigee altitude
1,001.357 km
Semi-major axis
7,507.771 km
Eccentricity
0.01709
Inclination
100.5145°
RAAN
204.696°
Arg. of periapsis
307.6685°
True anomaly
52.44456°
Mean anomaly
50.9045°
Eccentric anomaly
51.67246°
Mean motion
3.33639 °/min
Orbital period
107.9 mins
BSTAR
0.0018719
Loading maneuver chart data...
Computing Atmospheric mass density...

Documentation

Showing up to 5 results
|